contact:dominique.lefevre@mio.osupytheas.fr, maurice.libes@osupytheas.fr, didier.mallarino@osupytheas.fr
Project:EMSO http://www.emso-fr.org/EMSO-France
Depth: 2436.0 m
Title:EMSO Ligure Ouest : Data MII capteur MICROCAT
DateTime_Computer,Latitude,Longitude,Temperature,Conductivity,Pressure,DateTime_Instrument
DateTime_Computer,Latitude,Longitude,degC,S m-1,dbar,DateTime_Instrument
2021-01-07T00:01:21Z,42.805,6.029,13.2996,4.60011,2470.194,2021-1-07T02:02:22Z
2021-01-07T00:04:24Z,42.805,6.029,13.2991,4.60001,2470.171,2021-1-07T02:05:25Z
2021-01-07T00:07:27Z,42.805,6.029,13.2987,4.59995,2470.156,2021-1-07T02:08:28Z
2021-01-07T00:10:30Z,42.805,6.029,13.2990,4.60020,2470.194,2021-1-07T02:11:31Z
2021-01-07T00:13:34Z,42.805,6.029,13.2991,4.60002,2470.217,2021-1-07T02:14:34Z
2021-01-07T00:16:37Z,42.805,6.029,13.2986,4.59999,2470.203,2021-1-07T02:17:37Z
2021-01-07T00:19:40Z,42.805,6.029,13.2991,4.59997,2470.166,2021-1-07T02:20:41Z
2021-01-07T00:22:43Z,42.805,6.029,13.2981,4.59997,2470.147,2021-1-07T02:23:44Z
2021-01-07T00:43:08Z,42.805,6.029,13.2990,4.59999,2470.194,2021-1-07T02:44:09Z
2021-01-07T00:46:11Z,42.805,6.029,13.2991,4.60004,2470.156,2021-1-07T02:47:12Z
2021-01-07T00:49:14Z,42.805,6.029,13.2983,4.60006,2470.217,2021-1-07T02:50:15Z
2021-01-07T00:52:17Z,42.805,6.029,13.2990,4.60010,2470.194,2021-1-07T02:53:18Z
2021-01-07T00:55:21Z,42.805,6.029,13.2985,4.60020,2470.194,2021-1-07T02:56:21Z
2021-01-07T00:58:24Z,42.805,6.029,13.2990,4.60005,2470.18,2021-1-07T02:59:24Z
2021-01-07T01:01:27Z,42.805,6.029,13.2986,4.59996,2470.171,2021-1-07T03:02:28Z
2021-01-07T01:04:30Z,42.805,6.029,13.2987,4.59994,2470.217,2021-1-07T03:05:31Z
2021-01-07T01:07:33Z,42.805,6.029,13.2986,4.59998,2470.156,2021-1-07T03:08:34Z
2021-01-07T01:10:36Z,42.805,6.029,13.2986,4.59998,2470.194,2021-1-07T03:11:37Z
2021-01-07T01:13:39Z,42.805,6.029,13.2988,4.60026,2470.18,2021-1-07T03:14:40Z
2021-01-07T01:16:42Z,42.805,6.029,13.2987,4.60006,2470.194,2021-1-07T03:17:43Z
2021-01-07T01:19:45Z,42.805,6.029,13.2991,4.60000,2470.203,2021-1-07T03:20:46Z
2021-01-07T01:22:49Z,42.805,6.029,13.2986,4.59996,2470.18,2021-1-07T03:23:49Z
2021-01-07T01:25:52Z,42.805,6.029,13.2991,4.60009,2470.18,2021-1-07T03:26:52Z
2021-01-07T01:28:55Z,42.805,6.029,13.2985,4.59992,2470.156,2021-1-07T03:29:56Z
2021-01-07T01:31:58Z,42.805,6.029,13.2990,4.60006,2470.194,2021-1-07T03:32:59Z
2021-01-07T01:35:01Z,42.805,6.029,13.2986,4.60001,2470.217,2021-1-07T03:36:02Z
2021-01-07T01:38:04Z,42.805,6.029,13.2987,4.59996,2470.203,2021-1-07T03:39:05Z
2021-01-07T01:41:07Z,42.805,6.029,13.2982,4.59994,2470.203,2021-1-07T03:42:08Z
2021-01-07T01:44:10Z,42.805,6.029,13.2988,4.59998,2470.18,2021-1-07T03:45:11Z
2021-01-07T01:47:14Z,42.805,6.029,13.2990,4.60003,2470.156,2021-1-07T03:48:14Z
2021-01-07T01:50:17Z,42.805,6.029,13.2985,4.60016,2470.203,2021-1-07T03:51:17Z
2021-01-07T01:53:20Z,42.805,6.029,13.2983,4.59996,2470.18,2021-1-07T03:54:20Z
2021-01-07T01:56:23Z,42.805,6.029,13.2986,4.59995,2470.203,2021-1-07T03:57:24Z
2021-01-07T01:59:26Z,42.805,6.029,13.2987,4.59996,2470.194,2021-1-07T04:00:27Z
2021-01-07T02:02:29Z,42.805,6.029,13.2988,4.59997,2470.194,2021-1-07T04:03:30Z
2021-01-07T02:05:32Z,42.805,6.029,13.2994,4.60000,2470.124,2021-1-07T04:06:33Z
2021-01-07T02:08:35Z,42.805,6.029,13.2984,4.59998,2470.217,2021-1-07T04:09:36Z
2021-01-07T02:11:38Z,42.805,6.029,13.2986,4.59996,2470.18,2021-1-07T04:12:39Z
2021-01-07T02:14:42Z,42.805,6.029,13.2991,4.60001,2470.156,2021-1-07T04:15:42Z
2021-01-07T02:17:45Z,42.805,6.029,13.2985,4.60001,2470.171,2021-1-07T04:18:45Z
2021-01-07T02:20:48Z,42.805,6.029,13.2987,4.59999,2470.194,2021-1-07T04:21:49Z
2021-01-07T02:23:51Z,42.805,6.029,13.2990,4.60010,2470.18,2021-1-07T04:24:52Z
2021-01-07T02:26:54Z,42.805,6.029,13.2986,4.59999,2470.18,2021-1-07T04:27:55Z
2021-01-07T02:29:57Z,42.805,6.029,13.2989,4.60003,2470.147,2021-1-07T04:30:58Z
2021-01-07T02:33:00Z,42.805,6.029,13.2987,4.59998,2470.18,2021-1-07T04:34:01Z
2021-01-07T02:36:03Z,42.805,6.029,13.2987,4.59998,2470.18,2021-1-07T04:37:04Z
2021-01-07T02:39:07Z,42.805,6.029,13.2986,4.60000,2470.24,2021-1-07T04:40:07Z
2021-01-07T02:42:10Z,42.805,6.029,13.2986,4.59999,2470.18,2021-1-07T04:43:10Z
2021-01-07T02:45:13Z,42.805,6.029,13.2984,4.60001,2470.171,2021-1-07T04:46:13Z
2021-01-07T02:48:16Z,42.805,6.029,13.2984,4.59994,2470.133,2021-1-07T04:49:17Z
2021-01-07T02:51:19Z,42.805,6.029,13.2988,4.59999,2470.194,2021-1-07T04:52:20Z
2021-01-07T02:54:22Z,42.805,6.029,13.2990,4.60000,2470.156,2021-1-07T04:55:23Z
2021-01-07T02:57:25Z,42.805,6.029,13.2991,4.59997,2470.194,2021-1-07T04:58:26Z
2021-01-07T03:00:28Z,42.805,6.029,13.2985,4.59995,2470.147,2021-1-07T05:01:29Z
2021-01-07T03:03:31Z,42.805,6.029,13.2986,4.60003,2470.18,2021-1-07T05:04:32Z
2021-01-07T03:06:35Z,42.805,6.029,13.2983,4.59999,2470.18,2021-1-07T05:07:35Z
2021-01-07T03:09:38Z,42.805,6.029,13.2993,4.60003,2470.171,2021-1-07T05:10:38Z
2021-01-07T03:12:41Z,42.805,6.029,13.2984,4.60009,2470.156,2021-1-07T05:13:42Z
2021-01-07T03:15:44Z,42.805,6.029,13.2992,4.59998,2470.171,2021-1-07T05:16:45Z
2021-01-07T03:18:47Z,42.805,6.029,13.2990,4.59996,2470.171,2021-1-07T05:19:48Z
2021-01-07T03:21:50Z,42.805,6.029,13.2990,4.60006,2470.18,2021-1-07T05:22:51Z
2021-01-07T03:24:53Z,42.805,6.029,13.2991,4.60004,2470.18,2021-1-07T05:25:54Z
2021-01-07T03:27:56Z,42.805,6.029,13.2993,4.60024,2470.171,2021-1-07T05:28:57Z
2021-01-07T03:31:00Z,42.805,6.029,13.2992,4.60007,2470.156,2021-1-07T05:32:00Z
2021-01-07T03:34:03Z,42.805,6.029,13.2989,4.60009,2470.156,2021-1-07T05:35:03Z
2021-01-07T03:37:06Z,42.805,6.029,13.2992,4.60006,2470.11,2021-1-07T05:38:06Z
2021-01-07T03:40:09Z,42.805,6.029,13.2993,4.60000,2470.133,2021-1-07T05:41:10Z
2021-01-07T03:43:12Z,42.805,6.029,13.2999,4.60016,2470.171,2021-1-07T05:44:13Z
2021-01-07T03:46:15Z,42.805,6.029,13.2994,4.60016,2470.171,2021-1-07T05:47:16Z
2021-01-07T03:49:18Z,42.805,6.029,13.2990,4.60007,2470.171,2021-1-07T05:50:19Z
2021-01-07T03:52:21Z,42.805,6.029,13.2987,4.60000,2470.171,2021-1-07T05:53:22Z
2021-01-07T03:55:24Z,42.805,6.029,13.2990,4.60013,2470.171,2021-1-07T05:56:25Z
2021-01-07T03:58:28Z,42.805,6.029,13.2983,4.59998,2470.133,2021-1-07T05:59:28Z
2021-01-07T04:01:31Z,42.805,6.029,13.2991,4.60001,2470.171,2021-1-07T06:02:31Z
2021-01-07T04:04:34Z,42.805,6.029,13.2986,4.60001,2470.156,2021-1-07T06:05:35Z
2021-01-07T04:07:37Z,42.805,6.029,13.2990,4.60003,2470.171,2021-1-07T06:08:38Z
2021-01-07T04:10:40Z,42.805,6.029,13.2992,4.60009,2470.133,2021-1-07T06:11:41Z
2021-01-07T04:13:43Z,42.805,6.029,13.2986,4.60007,2470.156,2021-1-07T06:14:44Z
2021-01-07T04:16:46Z,42.805,6.029,13.2986,4.60004,2470.147,2021-1-07T06:17:47Z
2021-01-07T04:19:49Z,42.805,6.029,13.2986,4.59999,2470.133,2021-1-07T06:20:50Z
2021-01-07T04:22:53Z,42.805,6.029,13.2995,4.60008,2470.11,2021-1-07T06:23:53Z
2021-01-07T04:25:56Z,42.805,6.029,13.2990,4.60003,2470.133,2021-1-07T06:26:56Z
2021-01-07T04:28:59Z,42.805,6.029,13.2989,4.59999,2470.156,2021-1-07T06:29:59Z
2021-01-07T04:32:02Z,42.805,6.029,13.2998,4.60015,2470.133,2021-1-07T06:33:03Z
2021-01-07T04:35:05Z,42.805,6.029,13.2991,4.60000,2470.133,2021-1-07T06:36:06Z
2021-01-07T04:38:08Z,42.805,6.029,13.2983,4.60000,2470.156,2021-1-07T06:39:09Z
2021-01-07T04:41:11Z,42.805,6.029,13.2997,4.60013,2470.156,2021-1-07T06:42:12Z
2021-01-07T04:44:14Z,42.805,6.029,13.2990,4.59997,2470.171,2021-1-07T06:45:15Z
2021-01-07T04:47:17Z,42.805,6.029,13.2991,4.59996,2470.171,2021-1-07T06:48:18Z
2021-01-07T04:50:21Z,42.805,6.029,13.2993,4.60014,2470.133,2021-1-07T06:51:21Z
2021-01-07T04:53:24Z,42.805,6.029,13.2987,4.59999,2470.147,2021-1-07T06:54:24Z
2021-01-07T04:56:27Z,42.805,6.029,13.2983,4.60002,2470.147,2021-1-07T06:57:28Z
2021-01-07T04:59:30Z,42.805,6.029,13.2989,4.60006,2470.124,2021-1-07T07:00:31Z
2021-01-07T05:02:33Z,42.805,6.029,13.2993,4.60002,2470.147,2021-1-07T07:03:34Z
2021-01-07T05:05:36Z,42.805,6.029,13.2987,4.59997,2470.156,2021-1-07T07:06:37Z
2021-01-07T05:08:39Z,42.805,6.029,13.3000,4.60017,2470.133,2021-1-07T07:09:40Z
2021-01-07T05:11:42Z,42.805,6.029,13.2989,4.60022,2470.156,2021-1-07T07:12:43Z
2021-01-07T05:14:45Z,42.805,6.029,13.2997,4.60001,2470.124,2021-1-07T07:15:46Z
2021-01-07T05:17:49Z,42.805,6.029,13.2986,4.59996,2470.133,2021-1-07T07:18:49Z
2021-01-07T05:20:52Z,42.805,6.029,13.2984,4.59999,2470.124,2021-1-07T07:21:52Z
2021-01-07T05:23:55Z,42.805,6.029,13.2993,4.60008,2470.087,2021-1-07T07:24:56Z
2021-01-07T05:26:58Z,42.805,6.029,13.2990,4.60006,2470.133,2021-1-07T07:27:59Z
2021-01-07T05:30:01Z,42.805,6.029,13.2996,4.60015,2470.133,2021-1-07T07:31:02Z
2021-01-07T05:33:04Z,42.805,6.029,13.2983,4.60012,2470.11,2021-1-07T07:34:05Z
2021-01-07T05:36:07Z,42.805,6.029,13.2991,4.59999,2470.087,2021-1-07T07:37:08Z
2021-01-07T05:39:10Z,42.805,6.029,13.2991,4.60001,2470.133,2021-1-07T07:40:11Z
2021-01-07T05:42:14Z,42.805,6.029,13.2985,4.60008,2470.124,2021-1-07T07:43:14Z
2021-01-07T05:45:17Z,42.805,6.029,13.2993,4.60003,2470.133,2021-1-07T07:46:17Z
2021-01-07T05:48:20Z,42.805,6.029,13.2990,4.60002,2470.11,2021-1-07T07:49:21Z
2021-01-07T05:51:23Z,42.805,6.029,13.2986,4.59999,2470.133,2021-1-07T07:52:24Z
2021-01-07T05:54:26Z,42.805,6.029,13.2991,4.60003,2470.133,2021-1-07T07:55:27Z
2021-01-07T05:57:29Z,42.805,6.029,13.2998,4.60029,2470.124,2021-1-07T07:58:30Z
2021-01-07T06:00:32Z,42.805,6.029,13.2991,4.60003,2470.096,2021-1-07T08:01:33Z
2021-01-07T06:03:35Z,42.805,6.029,13.2992,4.60006,2470.11,2021-1-07T08:04:36Z
2021-01-07T06:06:38Z,42.805,6.029,13.2987,4.60011,2470.147,2021-1-07T08:07:39Z
2021-01-07T06:09:42Z,42.805,6.029,13.2990,4.60000,2470.1,2021-1-07T08:10:42Z
2021-01-07T06:12:45Z,42.805,6.029,13.2984,4.60003,2470.11,2021-1-07T08:13:45Z
2021-01-07T06:15:48Z,42.805,6.029,13.2986,4.60001,2470.087,2021-1-07T08:16:49Z
2021-01-07T06:18:51Z,42.805,6.029,13.2985,4.60029,2470.11,2021-1-07T08:19:52Z
2021-01-07T06:21:54Z,42.805,6.029,13.2986,4.59999,2470.11,2021-1-07T08:22:55Z
2021-01-07T06:24:57Z,42.805,6.029,13.2986,4.60011,2470.1,2021-1-07T08:25:58Z
2021-01-07T06:28:00Z,42.805,6.029,13.2990,4.60016,2470.124,2021-1-07T08:29:01Z
2021-01-07T06:31:03Z,42.805,6.029,13.2990,4.60009,2470.124,2021-1-07T08:32:04Z
2021-01-07T06:34:07Z,42.805,6.029,13.2984,4.60007,2470.063,2021-1-07T08:35:07Z
2021-01-07T06:37:10Z,42.805,6.029,13.2987,4.60001,2470.11,2021-1-07T08:38:10Z
2021-01-07T06:40:13Z,42.805,6.029,13.2986,4.60004,2470.147,2021-1-07T08:41:14Z
2021-01-07T06:43:16Z,42.805,6.029,13.2987,4.60002,2470.1,2021-1-07T08:44:17Z
2021-01-07T06:46:19Z,42.805,6.029,13.2989,4.59999,2470.147,2021-1-07T08:47:20Z
2021-01-07T06:49:22Z,42.805,6.029,13.2985,4.60011,2470.1,2021-1-07T08:50:23Z
2021-01-07T06:52:25Z,42.805,6.029,13.2993,4.60001,2470.096,2021-1-07T08:53:26Z
2021-01-07T06:55:28Z,42.805,6.029,13.2990,4.60027,2470.087,2021-1-07T08:56:29Z
2021-01-07T06:58:32Z,42.805,6.029,13.2998,4.60024,2470.087,2021-1-07T08:59:32Z
2021-01-07T07:01:35Z,42.805,6.029,13.2990,4.60026,2470.147,2021-1-07T09:02:35Z
2021-01-07T07:04:38Z,42.805,6.029,13.2986,4.60013,2470.11,2021-1-07T09:05:39Z
2021-01-07T07:07:41Z,42.805,6.029,13.2996,4.60016,2470.087,2021-1-07T09:08:42Z
2021-01-07T07:10:44Z,42.805,6.029,13.2988,4.60006,2470.1,2021-1-07T09:11:45Z
2021-01-07T07:13:47Z,42.805,6.029,13.2988,4.60002,2470.077,2021-1-07T09:14:48Z
2021-01-07T07:16:50Z,42.805,6.029,13.2983,4.60003,2470.147,2021-1-07T09:17:51Z
2021-01-07T07:19:53Z,42.805,6.029,13.2984,4.59997,2470.096,2021-1-07T09:20:54Z
2021-01-07T07:22:56Z,42.805,6.029,13.2986,4.59998,2470.04,2021-1-07T09:23:57Z
2021-01-07T07:26:00Z,42.805,6.029,13.2997,4.60002,2470.087,2021-1-07T09:27:00Z
2021-01-07T07:29:03Z,42.805,6.029,13.2990,4.60000,2470.087,2021-1-07T09:30:03Z
2021-01-07T07:32:06Z,42.805,6.029,13.2986,4.59997,2470.11,2021-1-07T09:33:07Z
2021-01-07T07:35:09Z,42.805,6.029,13.2990,4.60010,2470.133,2021-1-07T09:36:10Z
2021-01-07T07:38:12Z,42.805,6.029,13.2983,4.59999,2470.11,2021-1-07T09:39:13Z
2021-01-07T07:41:15Z,42.805,6.029,13.2991,4.59999,2470.077,2021-1-07T09:42:16Z
2021-01-07T07:44:18Z,42.805,6.029,13.2993,4.59999,2470.087,2021-1-07T09:45:19Z
2021-01-07T07:47:21Z,42.805,6.029,13.2985,4.60002,2470.124,2021-1-07T09:48:22Z
2021-01-07T07:50:25Z,42.805,6.029,13.2986,4.60001,2470.124,2021-1-07T09:51:25Z
2021-01-07T07:53:28Z,42.805,6.029,13.2991,4.60003,2470.087,2021-1-07T09:54:28Z
2021-01-07T07:56:31Z,42.805,6.029,13.2990,4.60005,2470.11,2021-1-07T09:57:32Z
2021-01-07T07:59:34Z,42.805,6.029,13.2991,4.59996,2470.124,2021-1-07T10:00:35Z
2021-01-07T08:02:37Z,42.805,6.029,13.2984,4.60013,2470.087,2021-1-07T10:03:38Z
2021-01-07T08:05:40Z,42.805,6.029,13.2996,4.60001,2470.11,2021-1-07T10:06:41Z
2021-01-07T08:08:43Z,42.805,6.029,13.2983,4.60003,2470.11,2021-1-07T10:09:44Z
2021-01-07T08:11:46Z,42.805,6.029,13.2990,4.59999,2470.11,2021-1-07T10:12:47Z
2021-01-07T08:14:50Z,42.805,6.029,13.2991,4.60000,2470.1,2021-1-07T10:15:50Z
2021-01-07T08:17:53Z,42.805,6.029,13.2991,4.60017,2470.11,2021-1-07T10:18:53Z
2021-01-07T08:20:56Z,42.805,6.029,13.2988,4.60003,2470.11,2021-1-07T10:21:57Z
2021-01-07T08:23:59Z,42.805,6.029,13.2983,4.60001,2470.1,2021-1-07T10:25:00Z
2021-01-07T08:27:02Z,42.805,6.029,13.2986,4.59998,2470.11,2021-1-07T10:28:03Z
2021-01-07T08:30:05Z,42.805,6.029,13.2983,4.59996,2470.087,2021-1-07T10:31:06Z
2021-01-07T08:33:08Z,42.805,6.029,13.2988,4.60001,2470.133,2021-1-07T10:34:09Z
2021-01-07T08:36:11Z,42.805,6.029,13.2987,4.59995,2470.124,2021-1-07T10:37:12Z
2021-01-07T08:39:14Z,42.805,6.029,13.2990,4.60009,2470.11,2021-1-07T10:40:15Z
2021-01-07T08:42:18Z,42.805,6.029,13.2995,4.60004,2470.063,2021-1-07T10:43:18Z
2021-01-07T08:45:21Z,42.805,6.029,13.2988,4.60007,2470.124,2021-1-07T10:46:22Z
2021-01-07T08:48:24Z,42.805,6.029,13.2990,4.60023,2470.124,2021-1-07T10:49:25Z
2021-01-07T08:51:27Z,42.805,6.029,13.2986,4.60003,2470.11,2021-1-07T10:52:28Z
2021-01-07T08:54:30Z,42.805,6.029,13.2994,4.60014,2470.147,2021-1-07T10:55:31Z
2021-01-07T08:57:33Z,42.805,6.029,13.2991,4.60020,2470.1,2021-1-07T10:58:34Z
2021-01-07T09:00:36Z,42.805,6.029,13.2994,4.60020,2470.147,2021-1-07T11:01:37Z
2021-01-07T09:03:39Z,42.805,6.029,13.2996,4.60023,2470.11,2021-1-07T11:04:40Z
2021-01-07T09:06:43Z,42.805,6.029,13.2990,4.60003,2470.147,2021-1-07T11:07:43Z
2021-01-07T09:09:46Z,42.805,6.029,13.2985,4.59998,2470.11,2021-1-07T11:10:46Z
2021-01-07T09:12:49Z,42.805,6.029,13.2984,4.60011,2470.147,2021-1-07T11:13:50Z
2021-01-07T09:15:52Z,42.805,6.029,13.2993,4.60011,2470.1,2021-1-07T11:16:53Z
2021-01-07T09:18:55Z,42.805,6.029,13.2994,4.60023,2470.124,2021-1-07T11:19:56Z
2021-01-07T09:21:58Z,42.805,6.029,13.2994,4.60014,2470.11,2021-1-07T11:22:59Z
2021-01-07T09:25:01Z,42.805,6.029,13.2984,4.59999,2470.171,2021-1-07T11:26:02Z
2021-01-07T09:28:04Z,42.805,6.029,13.2984,4.60003,2470.147,2021-1-07T11:29:05Z
2021-01-07T09:31:08Z,42.805,6.029,13.2991,4.60005,2470.11,2021-1-07T11:32:08Z
2021-01-07T09:34:11Z,42.805,6.029,13.2991,4.60023,2470.147,2021-1-07T11:35:11Z
2021-01-07T09:37:14Z,42.805,6.029,13.2992,4.60022,2470.171,2021-1-07T11:38:15Z
2021-01-07T09:40:17Z,42.805,6.029,13.2987,4.60006,2470.171,2021-1-07T11:41:18Z
2021-01-07T09:43:20Z,42.805,6.029,13.2988,4.60003,2470.147,2021-1-07T11:44:21Z
2021-01-07T09:46:23Z,42.805,6.029,13.2990,4.60016,2470.156,2021-1-07T11:47:24Z
2021-01-07T09:49:26Z,42.805,6.029,13.2993,4.60019,2470.11,2021-1-07T11:50:27Z
2021-01-07T09:52:29Z,42.805,6.029,13.2995,4.60033,2470.11,2021-1-07T11:53:30Z
2021-01-07T09:55:33Z,42.805,6.029,13.2995,4.60029,2470.133,2021-1-07T11:56:33Z
2021-01-07T09:58:36Z,42.805,6.029,13.2999,4.60031,2470.171,2021-1-07T11:59:36Z
2021-01-07T10:01:39Z,42.805,6.029,13.2992,4.60025,2470.124,2021-1-07T12:02:40Z
2021-01-07T10:04:42Z,42.805,6.029,13.2999,4.60016,2470.147,2021-1-07T12:05:43Z
2021-01-07T10:07:45Z,42.805,6.029,13.2994,4.60014,2470.156,2021-1-07T12:08:46Z
2021-01-07T10:10:48Z,42.805,6.029,13.3002,4.60026,2470.171,2021-1-07T12:11:49Z
2021-01-07T10:13:51Z,42.805,6.029,13.2998,4.60024,2470.171,2021-1-07T12:14:52Z
2021-01-07T10:16:54Z,42.805,6.029,13.2984,4.60006,2470.133,2021-1-07T12:17:55Z
2021-01-07T10:19:58Z,42.805,6.029,13.2994,4.60018,2470.217,2021-1-07T12:20:58Z
2021-01-07T10:23:01Z,42.805,6.029,13.2991,4.60015,2470.18,2021-1-07T12:24:01Z
2021-01-07T10:26:04Z,42.805,6.029,13.2994,4.60020,2470.156,2021-1-07T12:27:05Z
2021-01-07T10:29:07Z,42.805,6.029,13.2990,4.60014,2470.217,2021-1-07T12:30:08Z
2021-01-07T10:32:10Z,42.805,6.029,13.2990,4.60020,2470.171,2021-1-07T12:33:11Z
2021-01-07T10:35:13Z,42.805,6.029,13.3006,4.60033,2470.203,2021-1-07T12:36:14Z
2021-01-07T10:38:16Z,42.805,6.029,13.2999,4.60036,2470.194,2021-1-07T12:39:17Z
2021-01-07T10:41:19Z,42.805,6.029,13.3005,4.60025,2470.203,2021-1-07T12:42:20Z
2021-01-07T10:44:23Z,42.805,6.029,13.2991,4.60019,2470.171,2021-1-07T12:45:23Z
2021-01-07T10:47:26Z,42.805,6.029,13.2995,4.60014,2470.171,2021-1-07T12:48:26Z
2021-01-07T10:50:29Z,42.805,6.029,13.2998,4.60016,2470.171,2021-1-07T12:51:30Z
2021-01-07T10:53:32Z,42.805,6.029,13.3006,4.60035,2470.217,2021-1-07T12:54:33Z
2021-01-07T10:56:35Z,42.805,6.029,13.2996,4.60007,2470.171,2021-1-07T12:57:36Z
2021-01-07T10:59:38Z,42.805,6.029,13.2988,4.60002,2470.217,2021-1-07T13:00:39Z
2021-01-07T11:02:41Z,42.805,6.029,13.2988,4.59999,2470.194,2021-1-07T13:03:42Z
2021-01-07T11:05:44Z,42.805,6.029,13.2983,4.60014,2470.217,2021-1-07T13:06:45Z
2021-01-07T11:08:48Z,42.805,6.029,13.2994,4.60016,2470.203,2021-1-07T13:09:48Z
2021-01-07T11:11:51Z,42.805,6.029,13.2991,4.60035,2470.194,2021-1-07T13:12:51Z
2021-01-07T11:14:54Z,42.805,6.029,13.2987,4.60035,2470.194,2021-1-07T13:15:55Z
2021-01-07T11:17:57Z,42.805,6.029,13.3001,4.60020,2470.24,2021-1-07T13:18:58Z
2021-01-07T11:21:00Z,42.805,6.029,13.3002,4.60021,2470.203,2021-1-07T13:22:01Z
2021-01-07T11:24:03Z,42.805,6.029,13.2991,4.60021,2470.227,2021-1-07T13:25:04Z
2021-01-07T11:27:06Z,42.805,6.029,13.2990,4.60006,2470.217,2021-1-07T13:28:07Z
2021-01-07T11:30:09Z,42.805,6.029,13.2992,4.60014,2470.203,2021-1-07T13:31:10Z
2021-01-07T11:33:12Z,42.805,6.029,13.2998,4.60036,2470.24,2021-1-07T13:34:13Z
2021-01-07T11:36:16Z,42.805,6.029,13.2997,4.60027,2470.203,2021-1-07T13:37:16Z
2021-01-07T11:39:19Z,42.805,6.029,13.3000,4.60036,2470.18,2021-1-07T13:40:19Z
2021-01-07T11:42:22Z,42.805,6.029,13.3003,4.60037,2470.217,2021-1-07T13:43:23Z
2021-01-07T11:45:25Z,42.805,6.029,13.2997,4.60040,2470.217,2021-1-07T13:46:26Z
2021-01-07T11:48:28Z,42.805,6.029,13.2998,4.60014,2470.203,2021-1-07T13:49:29Z
2021-01-07T11:51:31Z,42.805,6.029,13.3002,4.60023,2470.227,2021-1-07T13:52:32Z
2021-01-07T11:54:34Z,42.805,6.029,13.3008,4.60033,2470.203,2021-1-07T13:55:35Z
2021-01-07T11:57:37Z,42.805,6.029,13.3008,4.60004,2470.217,2021-1-07T13:58:38Z
2021-01-07T12:00:41Z,42.805,6.029,13.2993,4.60029,2470.18,2021-1-07T14:01:41Z
2021-01-07T12:03:44Z,42.805,6.029,13.3002,4.60029,2470.24,2021-1-07T14:04:44Z
2021-01-07T12:06:47Z,42.805,6.029,13.2998,4.60029,2470.25,2021-1-07T14:07:48Z
2021-01-07T12:09:50Z,42.805,6.029,13.2999,4.60056,2470.203,2021-1-07T14:10:51Z
2021-01-07T12:12:53Z,42.805,6.029,13.3001,4.60026,2470.203,2021-1-07T14:13:54Z
2021-01-07T12:15:56Z,42.805,6.029,13.3022,4.60031,2470.25,2021-1-07T14:16:57Z
2021-01-07T12:18:59Z,42.805,6.029,13.3007,4.60033,2470.25,2021-1-07T14:20:00Z
2021-01-07T12:22:02Z,42.805,6.029,13.2998,4.60041,2470.217,2021-1-07T14:23:03Z
2021-01-07T12:25:06Z,42.805,6.029,13.2992,4.60033,2470.25,2021-1-07T14:26:06Z
2021-01-07T12:28:09Z,42.805,6.029,13.2996,4.60039,2470.217,2021-1-07T14:29:09Z
2021-01-07T12:31:12Z,42.805,6.029,13.2989,4.60020,2470.25,2021-1-07T14:32:13Z
2021-01-07T12:34:15Z,42.805,6.029,13.2987,4.60001,2470.25,2021-1-07T14:35:16Z
2021-01-07T12:37:18Z,42.805,6.029,13.2991,4.60002,2470.264,2021-1-07T14:38:19Z
2021-01-07T12:40:21Z,42.805,6.029,13.2991,4.60005,2470.24,2021-1-07T14:41:22Z
2021-01-07T12:43:24Z,42.805,6.029,13.3002,4.60046,2470.24,2021-1-07T14:44:25Z
2021-01-07T12:46:27Z,42.805,6.029,13.3000,4.60013,2470.227,2021-1-07T14:47:28Z
2021-01-07T12:49:31Z,42.805,6.029,13.2998,4.60025,2470.25,2021-1-07T14:50:31Z
2021-01-07T12:52:34Z,42.805,6.029,13.3004,4.60025,2470.227,2021-1-07T14:53:34Z
2021-01-07T12:55:37Z,42.805,6.029,13.3010,4.60031,2470.25,2021-1-07T14:56:38Z
2021-01-07T12:58:40Z,42.805,6.029,13.2985,4.60017,2470.24,2021-1-07T14:59:41Z
2021-01-07T13:01:43Z,42.805,6.029,13.2998,4.60014,2470.203,2021-1-07T15:02:44Z
2021-01-07T13:04:46Z,42.805,6.029,13.2996,4.60038,2470.24,2021-1-07T15:05:47Z
2021-01-07T13:07:49Z,42.805,6.029,13.2998,4.60035,2470.227,2021-1-07T15:08:50Z
2021-01-07T13:10:52Z,42.805,6.029,13.3000,4.60032,2470.236,2021-1-07T15:11:53Z
2021-01-07T13:13:56Z,42.805,6.029,13.2986,4.60021,2470.25,2021-1-07T15:14:56Z
2021-01-07T13:16:59Z,42.805,6.029,13.2990,4.60014,2470.24,2021-1-07T15:17:59Z
2021-01-07T13:20:02Z,42.805,6.029,13.3004,4.60038,2470.203,2021-1-07T15:21:03Z
2021-01-07T13:23:05Z,42.805,6.029,13.3013,4.60046,2470.227,2021-1-07T15:24:06Z
2021-01-07T13:26:08Z,42.805,6.029,13.3019,4.60039,2470.203,2021-1-07T15:27:09Z
2021-01-07T13:29:11Z,42.805,6.029,13.3014,4.60029,2470.25,2021-1-07T15:30:12Z
2021-01-07T13:32:14Z,42.805,6.029,13.3004,4.60046,2470.264,2021-1-07T15:33:15Z
2021-01-07T13:35:17Z,42.805,6.029,13.3002,4.60019,2470.203,2021-1-07T15:36:18Z
2021-01-07T13:38:20Z,42.805,6.029,13.2996,4.60038,2470.227,2021-1-07T15:39:21Z
2021-01-07T13:41:24Z,42.805,6.029,13.3000,4.60029,2470.25,2021-1-07T15:42:24Z
2021-01-07T13:44:27Z,42.805,6.029,13.3010,4.60039,2470.24,2021-1-07T15:45:27Z
2021-01-07T13:47:30Z,42.805,6.029,13.2996,4.60030,2470.25,2021-1-07T15:48:31Z
2021-01-07T13:50:33Z,42.805,6.029,13.3008,4.60024,2470.227,2021-1-07T15:51:34Z
2021-01-07T13:53:36Z,42.805,6.029,13.3005,4.60045,2470.25,2021-1-07T15:54:37Z
2021-01-07T13:56:39Z,42.805,6.029,13.2993,4.60037,2470.227,2021-1-07T15:57:40Z
2021-01-07T13:59:42Z,42.805,6.029,13.2994,4.60022,2470.227,2021-1-07T16:00:43Z
2021-01-07T14:02:45Z,42.805,6.029,13.2995,4.60037,2470.25,2021-1-07T16:03:46Z
2021-01-07T14:05:49Z,42.805,6.029,13.2999,4.60039,2470.25,2021-1-07T16:06:49Z
2021-01-07T14:08:52Z,42.805,6.029,13.2997,4.60031,2470.25,2021-1-07T16:09:52Z
2021-01-07T14:11:55Z,42.805,6.029,13.3021,4.60031,2470.24,2021-1-07T16:12:56Z
2021-01-07T14:14:58Z,42.805,6.029,13.3011,4.60029,2470.24,2021-1-07T16:15:59Z
2021-01-07T14:18:01Z,42.805,6.029,13.3000,4.60037,2470.227,2021-1-07T16:19:02Z
2021-01-07T14:21:04Z,42.805,6.029,13.3005,4.60017,2470.227,2021-1-07T16:22:05Z
2021-01-07T14:24:07Z,42.805,6.029,13.3004,4.60038,2470.25,2021-1-07T16:25:08Z
2021-01-07T14:27:10Z,42.805,6.029,13.3002,4.60043,2470.227,2021-1-07T16:28:11Z
2021-01-07T14:30:14Z,42.805,6.029,13.3012,4.60033,2470.227,2021-1-07T16:31:14Z
2021-01-07T14:33:17Z,42.805,6.029,13.3006,4.60045,2470.264,2021-1-07T16:34:17Z
2021-01-07T14:36:20Z,42.805,6.029,13.3001,4.60039,2470.24,2021-1-07T16:37:21Z
2021-01-07T14:39:23Z,42.805,6.029,13.3010,4.60050,2470.264,2021-1-07T16:40:24Z
2021-01-07T14:42:26Z,42.805,6.029,13.3002,4.60057,2470.227,2021-1-07T16:43:27Z
2021-01-07T14:45:29Z,42.805,6.029,13.3023,4.60035,2470.264,2021-1-07T16:46:30Z
2021-01-07T14:48:32Z,42.805,6.029,13.3002,4.60041,2470.227,2021-1-07T16:49:33Z
2021-01-07T14:51:35Z,42.805,6.029,13.2997,4.60058,2470.24,2021-1-07T16:52:36Z
2021-01-07T14:54:39Z,42.805,6.029,13.3000,4.60059,2470.25,2021-1-07T16:55:39Z
2021-01-07T14:57:42Z,42.805,6.029,13.3000,4.60062,2470.24,2021-1-07T16:58:42Z
2021-01-07T15:00:45Z,42.805,6.029,13.3034,4.60053,2470.24,2021-1-07T17:01:46Z
2021-01-07T15:03:48Z,42.805,6.029,13.2998,4.60043,2470.24,2021-1-07T17:04:49Z
2021-01-07T15:06:51Z,42.805,6.029,13.3014,4.60052,2470.25,2021-1-07T17:07:52Z
2021-01-07T15:09:54Z,42.805,6.029,13.3020,4.60054,2470.24,2021-1-07T17:10:55Z
2021-01-07T15:12:57Z,42.805,6.029,13.3038,4.60029,2470.227,2021-1-07T17:13:58Z
2021-01-07T15:16:00Z,42.805,6.029,13.3014,4.60053,2470.25,2021-1-07T17:17:01Z
2021-01-07T15:19:03Z,42.805,6.029,13.3008,4.60036,2470.227,2021-1-07T17:20:04Z
2021-01-07T15:22:07Z,42.805,6.029,13.3015,4.60036,2470.264,2021-1-07T17:23:07Z
2021-01-07T15:25:10Z,42.805,6.029,13.3025,4.60014,2470.264,2021-1-07T17:26:10Z
2021-01-07T15:28:13Z,42.805,6.029,13.3010,4.60041,2470.25,2021-1-07T17:29:14Z
2021-01-07T15:31:16Z,42.805,6.029,13.3004,4.60045,2470.24,2021-1-07T17:32:17Z